BULGARIASAT-1 (42801 NORAD) Tracking and Keplerian Element Data

This shows tracking and keplerian element data for the satellite.

Feedback or suggestion? Click here.




ElementValue
Catalog42801
NameBULGARIASAT-1
Epoch Orbit502
Epoch Day316.85041503
Epoch Year2018
RAAN107.5906
Inclination0.0304
Eccentricity0.0002615
Argument of Perigee133.2908
Mean Anonmoly119.1197
Mean Motion1.00273029
Decay Rate1E-07
L11 42801U 17038A 18316.85041503 .00000010 00000-0 00000-0 0 9990
L22 42801 0.0304 107.5906 0002615 133.2908 119.1197 1.00273029 5022

Live tracking and technical data element details for BULGARIASAT-1 (NORAD 42801). BULGARIASAT-1 can be tracked NOW for your location showing map with azimuth and elevation plus other details from your city location.

Track the satellite on the map from your city or location and see movement details for azimuth, elevation, latitude, longitude, range, height, and movement on the map or in text.







IsCatalogInMostPopularTable: catalog: 42801, numindb: 112
Update: records affected: 1



GetName: 42801 BULGARIASAT-1

Hit Count: updated at: Wed, 14 Nov 2018 10:57:03 GMT